Terminal Aerodrome Forecast
Issued by NWS Flagstaff, AZ

Home | Current Version | Previous Version | Text Only | Print | Product List | Glossary On
Versions: 1 2 3 4 5 6 7 8 9 10 11 12 13 14 15
698
FTUS45 KFGZ 272320
TAFFLG
TAF
KFLG 272320Z 2800/2824 VRB06KT P6SM SCT080 PROB30 2819/2822
      VRB15G25KT -TSRA BKN070CB=

USA.gov is the U.S. government's official web portal to all federal, state and local government web resources and services.